Location: Angwan Shehu
(11.2514°N, 7.4613°E)
Time: 03:46:11
(UTC+00:00)

Vanguard 3 - Pass Details

Date: 07 August 2021
Orbit: 510 x 3260 km, 33.3° (Epoch: 16 September)

Event Time Altitude Azimuth Distance (km) Brightness Sun altitude
Rises 21:40:53 0° 304° (NW) 6,815 12.5 -50.5°
Reaches altitude 10° 21:45:10 10° 306° (NW) 5,984 12.0 -51.3°
Enters shadow 22:02:31 72° 330° (NNW) 3,313 9.9 -54.2°
